Weather in Snovo-Zdorovo

Russia / Ryazan Oblast     54°06′21″N   41°52′09″E
temp.,
°C
wind,
m/s
gust,
m/s
humid.,
%
clouds,
%
prec.,
mm/h
press.,
hPa
HPBL,
m
7 july, thu
thu700:00+19ssw4867100 0.0 1015126
03:00+18ssw4864100 0.0 1016150
06:00+18s3770100 0.0 1016155
09:00+24s4654100 0.0 1016415
12:00+27s454222 0.0 10161115
15:00+29s45385 0.0 10151636
18:00+27s365112 0.0 1015237
21:00+20sse466148 0.0 101590
8 july, fri
fri800:00+19sse3665100 0.0 101688
03:00+17s346898 0.0 101660
06:00+18s3572100 0.0 1016117
09:00+24s345860 0.0 1016457
12:00+28ssw3351100 0.1 10161287
15:00+29s3349100 0.1 10151379
18:00+20wnw478860 3.3 1016152
21:00+17sse11876 5.3 101611
9 july, sat
sat900:00+17sw22823 0.3 101511
03:00+16ne00854 0.3 101511
06:00+19ne118049 0.0 101550
09:00+23e116677 0.0 1015382
12:00+28s124921 0.0 10141286
15:00+29s124190 0.0 10131928
18:00+25se246281 0.0 1011172
21:00+21nne4665100 0.0 1012175
10 july, sun
sun1000:00+18ene228260 0.0 101216
03:00+17ese2284100 0.0 101112
06:00+19s377797 0.0 1012188
09:00+24sse475639 0.0 1012574
12:00+29sse573847 0.0 10111727
15:00+29sse564087 0.0 10111426
18:00+19w598998 2.8 1013243
21:00+17s4991100 4.8 1013153
11 july, mon
mon1100:00+17e4987100 0.1 1012138
03:00+17e4119040 0.1 1011181
06:00+18e5138397 0.0 1011284
09:00+25ese71354100 0.0 1010797
12:00+25se71353100 0.0 1011984
15:00+22nw1167100 0.3 101219
18:00+25ese71547100 0.0 1011594
21:00+21ese91869100 0.1 1011661